This is the latest recevied weather packets stored in our database for station/object IN3XSV-15. If no packets are shown the sender has not sent any weather packets the latest 10 day(s).
| Time | Temp. | Humidity | Pressure | Rain* | Wind** | Luminosity | Snow |
|---|---|---|---|---|---|---|---|
| 1777813203 | 11.67° C | 62% | 861.8 hPa | 0 mm | - | - | - |
| 1777812903 | 12.22° C | 62% | 861.9 hPa | 0 mm | - | - | - |
| 1777812603 | 12.22° C | 61% | 861.7 hPa | 0 mm | - | - | - |
| 1777812303 | 12.22° C | 62% | 862 hPa | 0 mm | - | - | - |
| 1777812003 | 12.22° C | 62% | 861.8 hPa | 0 mm | - | - | - |
| 1777811703 | 12.78° C | 62% | 861.8 hPa | 0 mm | - | - | - |
| 1777811403 | 12.22° C | 62% | 861.9 hPa | 0 mm | - | - | - |
| 1777811103 | 12.22° C | 62% | 861.6 hPa | 0 mm | - | - | - |
| 1777810803 | 12.22° C | 60% | 862 hPa | 0 mm | - | - | - |
| 1777810503 | 12.78° C | 59% | 861.7 hPa | 0 mm | - | - | - |
| 1777810203 | 12.78° C | 58% | 861.6 hPa | 0 mm | - | - | - |
| 1777809903 | 12.78° C | 57% | 861.6 hPa | 0 mm | - | - | - |
| 1777809603 | 13.33° C | 56% | 861.6 hPa | 0 mm | - | - | - |
| 1777809303 | 13.33° C | 56% | 861.7 hPa | 0 mm | - | - | - |
| 1777809003 | 13.33° C | 56% | 861.6 hPa | 0 mm | - | - | - |
| 1777808703 | 13.33° C | 55% | 861.5 hPa | 0 mm | - | - | - |
| 1777808403 | 13.33° C | 55% | 861.6 hPa | 0 mm | - | - | - |
| 1777808103 | 13.33° C | 55% | 861.6 hPa | 0 mm | - | - | - |
| 1777807803 | 12.78° C | 54% | 861.6 hPa | 0 mm | - | - | - |
| 1777807503 | 13.33° C | 53% | 861.6 hPa | 0 mm | - | - | - |
| 1777807203 | 13.33° C | 53% | 861.6 hPa | 0 mm | - | - | - |
| 1777806903 | 13.33° C | 53% | 861.6 hPa | 0 mm | - | - | - |
| 1777806603 | 13.33° C | 52% | 861.5 hPa | 0 mm | - | - | - |
| 1777806303 | 13.33° C | 52% | 861.6 hPa | 0 mm | - | - | - |
| 1777806003 | 13.89° C | 51% | 861.5 hPa | 0 mm | - | - | - |
* Rain latest hour (hover to see other rain measurements)
** Current wind speed in m/s (hover to see current wind gust speed)